Somerville, NJ

5:48 PM EDT on September 25, 2017 (GMT -0400)
Somerset

Weather History for KSMQ - May, 2014

Change the Weather History Date:

Monday, May 12, 2014

  Actual Average Record
Temperature  
Mean Temperature 67 °F -  
Max Temperature 84 °F 72 °F 90 °F (2004)
Min Temperature 50 °F 46 °F 34 °F (1990)
Cooling Degree Days 2    
Growing Degree Days 17 (Base 50)    
Moisture  
Dew Point 55 °F    
Average Humidity 71    
Maximum Humidity 94    
Minimum Humidity 38    
Precipitation  
Precipitation 0.00 in - - ()
Sea Level Pressure  
Sea Level Pressure 30.06 in    
Wind  
Wind Speed 1 mph (South)    
Max Wind Speed 8 mph    
Max Gust Speed -    
Visibility 8 miles    
Events      
Averages and records for this station are not official NWS values.
T = Trace of Precipitation, MM = Missing Value Source: NWS Daily Summary

Daily Weather History Graph

Daily Weather History Graph

Search for Another Location

Airport or City:

Trip Planner

Search our weather history database for the weather conditions in past years. The results will help you decide how hot, cold, wet, or windy it might be!

Date:

Astronomy

May. 12, 2014 Rise Set
Actual Time 5:44 AM EDT 8:05 PM EDT
Civil Twilight 5:14 AM EDT 8:36 PM EDT
Nautical Twilight 4:36 AM EDT 9:14 PM EDT
Astronomical Twilight 3:54 AM EDT 9:57 PM EDT
Moon 6:00 PM EDT (5/12) 4:23 AM EDT (5/12)
Length of Visible Light 15h 22m
Length of Day
14h 21m
Waxing Gibbous, 95% of the Moon is Illuminated
May 12
Waxing Gibbous
May 14
Full
May 21
Last Quarter
May 28
New
Jun 5
First Quarter

Hourly Weather History & Observations

Time (EDT) Temp. Heat Index Dew Point Humidity Pressure Visibility Wind Dir Wind Speed Gust Speed Precip Events Conditions
12:53 AM 52.0 °F - 50.0 °F 93% 30.08 in 10.0 mi Calm Calm - N/A   Clear
1:53 AM 52.0 °F - 48.9 °F 89% 30.08 in 10.0 mi Calm Calm - N/A   Clear
2:53 AM 51.1 °F - 48.0 °F 89% 30.08 in 9.0 mi Calm Calm - N/A   Clear
3:53 AM 51.1 °F - 48.0 °F 89% 30.09 in 10.0 mi Calm Calm - N/A   Clear
4:53 AM 50.0 °F - 46.9 °F 89% 30.09 in 10.0 mi Calm Calm - N/A   Clear
5:53 AM 50.0 °F - 46.9 °F 89% 30.09 in 10.0 mi Calm Calm - N/A   Clear
6:53 AM 52.0 °F - 48.0 °F 86% 30.11 in 10.0 mi Calm Calm - N/A   Clear
7:53 AM 60.1 °F - 53.1 °F 78% 30.11 in 10.0 mi Calm Calm - N/A   Clear
8:53 AM 68.0 °F - 53.1 °F 59% 30.11 in 10.0 mi Calm Calm - N/A   Clear
9:53 AM 73.4 °F - 55.4 °F 53% 30.11 in 10.0 mi Calm Calm - N/A   Clear
10:53 AM 78.1 °F - 55.0 °F 45% 30.09 in 10.0 mi Variable 4.6 mph - N/A   Clear
11:53 AM 80.1 °F 80.0 °F 54.0 °F 40% 30.09 in 10.0 mi Calm Calm - N/A   Partly Cloudy
12:53 PM 82.0 °F 81.3 °F 54.0 °F 38% 30.06 in 10.0 mi Variable 3.5 mph - N/A   Scattered Clouds
1:53 PM 81.0 °F 81.1 °F 57.9 °F 45% 30.05 in 10.0 mi South 8.1 mph - N/A   Mostly Cloudy
2:53 PM 84.0 °F 83.5 °F 57.9 °F 41% 30.04 in 10.0 mi South 6.9 mph - N/A   Mostly Cloudy
3:53 PM 84.0 °F 83.3 °F 57.0 °F 40% 30.01 in 10.0 mi Calm Calm - N/A   Scattered Clouds
4:53 PM 82.0 °F 82.1 °F 59.0 °F 45% 30.01 in 10.0 mi Variable 6.9 mph - N/A   Mostly Cloudy
5:53 PM 82.9 °F 82.0 °F 55.0 °F 38% 30.01 in 10.0 mi Calm Calm - N/A   Overcast
9:53 PM 68.0 °F - 64.0 °F 87% 30.04 in 10.0 mi Calm Calm - N/A   Partly Cloudy
10:53 PM 64.4 °F - 62.6 °F 94% 30.04 in 2.0 mi Calm Calm - N/A   Clear
11:04 PM 64.9 °F - 63.0 °F 93% 30.03 in 6.0 mi Calm Calm - N/A   Clear
11:25 PM 64.0 °F - 62.1 °F 93% 30.03 in 1.8 mi Calm Calm - N/A   Clear
11:35 PM 64.0 °F - 62.1 °F 93% 30.04 in 3.0 mi Calm Calm - N/A   Clear
11:53 PM 63.0 °F - 61.0 °F 93% 30.04 in 1.8 mi Calm Calm - N/A   Clear